WS6A-13 Weather Reports


Display with metric or nautical units.
time (UTC)temp
F
wind
direction
speed
MPH
gust
MPH
rain 1hr
in
rain 24hr
in
rain mn
in
humidity
%
barometer
mb
20260901063004 74 78 0.0 0.0 0.00 0.00 0.00 90 1014.6
20260901061504 75 78 0.0 0.0 0.00 0.00 0.00 90 1014.5
20260901060004 75 78 0.0 0.0 0.00 0.00 0.00 89 1014.3
20260901054504 75 78 0.0 0.0 0.00 0.00 0.00 89 1014.5
20260901053004 75 78 0.0 0.0 0.00 0.00 0.00 89 1014.7
20260901050004 75 78 0.0 0.0 0.00 0.00 0.00 89 1014.6
20260901044506 75 78 0.0 0.0 0.00 0.00 0.00 90 1014.6
20260901041504 75 78 0.0 0.0 0.00 0.00 0.00 89 1015.2
20260901040005 75 78 0.0 0.0 0.00 0.00 0.00 89 1015.3
20260901034503 75 78 0.0 0.0 0.00 0.00 0.00 89 1015.4
20260901033005 75 78 0.0 0.0 0.00 0.00 0.00 89 1015.4
20260901030004 75 78 0.0 0.0 0.00 0.00 0.00 88 1015.6
20260901024504 75 78 0.0 0.0 0.00 0.00 0.00 88 1015.6
20260901023004 76 78 0.0 0.0 0.00 0.00 0.00 87 1015.6
20260901021504 76 78 0.0 0.0 0.00 0.00 0.00 87 1015.7
20260901020004 77 78 0.0 0.0 0.00 0.00 0.00 86 1015.7
20260901014504 77 78 0.0 0.0 0.00 0.00 0.00 86 1015.7
20260901013004 78 78 0.0 0.0 0.00 0.00 0.00 85 1015.6
20260901011504 78 78 0.0 0.0 0.00 0.00 0.00 84 1015.4
20260901010004 79 78 0.0 0.0 0.00 0.00 0.00 83 1015.2
20260901004504 80 78 0.0 0.0 0.00 0.00 0.00 82 1015.1
20260901001504 82 78 0.0 0.0 0.00 0.00 0.00 79 1014.9
20260901000004 83 78 0.0 0.0 0.00 0.00 0.00 78 1014.8
20260831234504 84 78 0.0 0.0 0.00 0.00 0.00 75 1014.8
20260831231504 85 78 0.0 0.0 0.00 0.00 0.00 74 1014.2
20260831230003 85 78 0.0 0.0 0.00 0.00 0.00 74 1014.2
20260831224504 86 78 0.0 0.0 0.00 0.00 0.00 72 1014.0
20260831221504 87 231 0.0 0.0 0.00 0.00 0.00 68 1013.9
20260831220004 88 159 0.0 0.0 0.00 0.00 0.00 66 1013.9
20260831214504 89 159 0.0 1.0 0.00 0.00 0.00 67 1014.5
20260831213004 89 252 0.0 3.0 0.00 0.00 0.00 64 1014.6
20260831211504 89 252 0.0 1.0 0.00 0.00 0.00 67 1014.8
20260831210013 89 236 0.0 6.0 0.00 0.00 0.00 64 1014.9
20260831204503 90 100 0.0 2.0 0.00 0.00 0.00 64 1015.2
20260831203004 90 74 1.0 5.0 0.00 0.00 0.00 62 1015.4
20260831201504 91 60 0.0 3.0 0.00 0.00 0.00 62 1015.5
20260831200010 91 74 0.0 2.0 0.00 0.00 0.00 62 1015.8
20260831194504 90 107 0.0 5.0 0.00 0.00 0.00 68 1016.0
20260831193004 90 107 0.0 3.0 0.00 0.00 0.00 67 1016.1
20260831191503 88 46 1.0 3.0 0.00 0.00 0.00 71 1016.3
20260831190004 87 138 0.0 1.0 0.00 0.00 0.00 70 1016.4
20260831183004 88 267 0.0 3.0 0.00 0.00 0.00 71 1016.6
20260831180004 89 79 0.0 6.0 0.00 0.00 0.00 71 1016.9
20260831173004 88 121 0.0 6.0 0.00 0.00 0.00 73 1017.1
20260831171504 87 61 0.0 0.0 0.00 0.00 0.00 76 1017.0
20260831170004 87 60 0.0 6.0 0.00 0.00 0.00 73 1017.2
20260831164504 87 74 0.0 5.0 0.00 0.00 0.00 73 1017.4
20260831161504 85 295 0.0 2.0 0.00 0.00 0.00 75 1017.5
20260831160004 84 132 0.0 1.0 0.00 0.00 0.00 79 1017.5
20260831154504 84 157 0.0 0.0 0.00 0.00 0.00 78 1017.4
20260831153004 83 138 0.0 0.0 0.00 0.00 0.00 80 1017.4
20260831151505 82 138 0.0 0.0 0.00 0.00 0.00 81 1017.4
20260831150004 81 138 0.0 0.0 0.00 0.00 0.00 79 1017.2
20260831144504 81 138 0.0 0.0 0.00 0.00 0.00 80 1017.1
20260831143004 80 136 0.0 0.0 0.00 0.00 0.00 80 1017.1
20260831133004 76 136 0.0 0.0 0.00 0.00 0.00 87 1017.1
20260831131504 75 136 0.0 0.0 0.00 0.00 0.00 88 1017.1
20260831130004 74 136 0.0 0.0 0.00 0.00 0.00 92 1017.0
20260831124504 73 136 0.0 0.0 0.00 0.00 0.00 92 1016.9
20260831120004 71 136 0.0 0.0 0.00 0.00 0.00 92 1016.7
20260831114504 71 136 0.0 0.0 0.00 0.00 0.00 92 1016.7
20260831113004 71 136 0.0 0.0 0.00 0.00 0.00 92 1016.5
20260831111504 71 136 0.0 0.0 0.00 0.00 0.00 92 1016.5
20260831110004 71 136 0.0 0.0 0.00 0.00 0.00 91 1016.3
20260831104504 71 136 0.0 0.0 0.00 0.00 0.00 91 1016.2
20260831103004 71 136 0.0 0.0 0.00 0.00 0.00 91 1016.0
20260831101504 71 136 0.0 0.0 0.00 0.00 0.00 91 1016.0
20260831100004 71 136 0.0 0.0 0.00 0.00 0.00 91 1016.0
20260831094504 71 136 0.0 0.0 0.00 0.00 0.00 91 1016.0
20260831093004 71 136 0.0 0.0 0.00 0.00 0.00 91 1016.0
20260831091504 71 136 0.0 0.0 0.00 0.00 0.00 91 1016.0
20260831090004 71 136 0.0 0.0 0.00 0.00 0.00 91 1016.0
20260831084504 71 136 0.0 0.0 0.00 0.00 0.00 91 1015.8
20260831083004 71 136 0.0 0.0 0.00 0.00 0.00 91 1015.8
20260831081504 71 136 0.0 0.0 0.00 0.00 0.00 91 1015.7
20260831080004 71 136 0.0 0.0 0.00 0.00 0.00 91 1015.4
20260831074504 71 136 0.0 0.0 0.00 0.00 0.00 91 1015.6
20260831073004 71 136 0.0 0.0 0.00 0.00 0.00 91 1015.7
20260831070004 72 136 0.0 0.0 0.00 0.00 0.00 92 1015.8
20260831064504 72 136 0.0 0.0 0.00 0.00 0.00 92 1015.9